Location: Ch�tillon
(48.8024°N, 2.2935°E)
Time: 17:42:54
(UTC+00:00)

XW-2A - Pass Details

Date: 06 July 2022
Orbit: 396 x 406 km, 97.2° (Epoch: 10 August)

Event Time Altitude Azimuth Distance (km) Brightness Sun altitude
Exits shadow 21:36:12 - 209° (SSW) 1,937 ? -12.1°
Reaches altitude 10° 21:37:43 10° 225° (SW) 1,441 ? -12.2°
Maximum altitude 21:39:47 17° 267° (W) 1,116 ? -12.4°
Drops below altitude 10° 21:41:52 10° 310° (NW) 1,451 ? -12.6°
Sets 21:44:22 0° 332° (NNW) 2,317 ? -12.8°
